When you browse on this site, cookies collect data to enhance your experience and personalize the content and advertising you see.
Visit our Privacy Policy to learn more. By continuing to use the site, you agree to this use of cookies and data.
  • In United Kingdom
  • List of Countries
  • For 7 days
  • Water Temperature
  • Satellite Maps
  • Weather Map
  • Weather Widgets
  • user-avatar
    Login

    Hourly Weather Aberfeldy

    Today, 21 March, Thursday

    Time Temperature Precipitation Wind Pressure Humidity
    00:00 +8°C° 0 mm 5 mps 739 mmHg 92%
    01:00 +8°C° 0.1 mm 5 mps 739 mmHg 92%
    02:00 +8°C° 0.1 mm 4 mps 739 mmHg 92%
    03:00 +8°C° 0.1 mm 4 mps 740 mmHg 92%
    04:00 +8°C° 0.1 mm 4 mps 740 mmHg 93%
    05:00 +8°C° 0.1 mm 4 mps 740 mmHg 93%
    06:00 +8°C° 0.1 mm 4 mps 741 mmHg 93%
    07:00 +9°C° 0.2 mm 3 mps 741 mmHg 93%
    08:00 +9°C° 0.2 mm 3 mps 742 mmHg 93%
    09:00 +9°C° 0.2 mm 3 mps 743 mmHg 93%
    10:00 +10°C° 0 mm 3 mps 743 mmHg 88%
    11:00 +11°C° 0 mm 3 mps 743 mmHg 83%
    12:00 +11°C° 0 mm 3 mps 743 mmHg 78%
    13:00 +11°C° 0 mm 3 mps 743 mmHg 79%
    14:00 +11°C° 0 mm 3 mps 743 mmHg 81%
    15:00 +11°C° 0 mm 3 mps 743 mmHg 82%
    16:00 +10°C° 0.1 mm 3 mps 743 mmHg 86%
    17:00 +10°C° 0.1 mm 3 mps 742 mmHg 90%
    18:00 +10°C° 0.1 mm 3 mps 742 mmHg 94%
    19:00 +10°C° 0.1 mm 3 mps 741 mmHg 94%
    20:00 +8°C° 0.1 mm 4 mps 741 mmHg 94%
    21:00 +8°C° 0.1 mm 4 mps 741 mmHg 94%
    22:00 +8°C° 0 mm 4 mps 740 mmHg 94%
    23:00 +8°C° 0 mm 5 mps 739 mmHg 94%

    Tomorrow, 22 March, Friday

    Time Temperature Precipitation Wind Pressure Humidity
    00:00 +8°C° 0 mm 5 mps 739 mmHg 93%
    01:00 +8°C° 0 mm 5 mps 738 mmHg 92%
    02:00 +8°C° 0 mm 6 mps 737 mmHg 90%
    03:00 +8°C° 0 mm 6 mps 736 mmHg 89%
    04:00 +8°C° 0.2 mm 7 mps 735 mmHg 88%
    05:00 +7°C° 0.2 mm 8 mps 735 mmHg 87%
    06:00 +7°C° 0.2 mm 8 mps 734 mmHg 86%
    07:00 +7°C° 0.2 mm 8 mps 733 mmHg 86%
    08:00 +7°C° 0.2 mm 8 mps 733 mmHg 85%
    09:00 +7°C° 0.2 mm 9 mps 732 mmHg 85%
    10:00 +7°C° 0.7 mm 8 mps 733 mmHg 86%
    11:00 +6°C° 0.7 mm 8 mps 733 mmHg 87%
    12:00 +6°C° 0.7 mm 7 mps 733 mmHg 88%
    13:00 +6°C° 0.1 mm 8 mps 734 mmHg 81%
    14:00 +6°C° 0.1 mm 8 mps 734 mmHg 74%
    15:00 +6°C° 0.1 mm 9 mps 734 mmHg 67%
    16:00 +5°C° 0 mm 8 mps 735 mmHg 67%
    17:00 +3°C° 0 mm 7 mps 736 mmHg 68%
    18:00 +2°C° 0 mm 7 mps 737 mmHg 68%
    19:00 +2°C° 0 mm 7 mps 737 mmHg 69%
    20:00 +1°C° 0 mm 6 mps 738 mmHg 70%
    21:00 -1°C° 0 mm 6 mps 739 mmHg 70%
    22:00 -1°C° 0 mm 6 mps 739 mmHg 71%
    23:00 -1°C° 0 mm 6 mps 740 mmHg 71%

    Day after tomorrow, 23 March, Saturday

    Time Temperature Precipitation Wind Pressure Humidity
    00:00 -2°C° 0 mm 6 mps 740 mmHg 72%
    01:00 -1°C° 0 mm 5 mps 741 mmHg 73%
    02:00 -1°C° 0 mm 5 mps 741 mmHg 74%
    03:00 -1°C° 0 mm 5 mps 741 mmHg 75%
    04:00 -1°C° 0 mm 4 mps 742 mmHg 77%
    05:00 -1°C° 0 mm 4 mps 742 mmHg 79%
    06:00 -1°C° 0 mm 3 mps 743 mmHg 80%
    07:00 0°C° 0 mm 4 mps 743 mmHg 73%
    08:00 +1°C° 0 mm 4 mps 744 mmHg 67%
    09:00 +2°C° 0 mm 5 mps 744 mmHg 60%
    10:00 +3°C° 0 mm 5 mps 745 mmHg 57%
    11:00 +5°C° 0 mm 5 mps 745 mmHg 55%
    12:00 +5°C° 0 mm 5 mps 745 mmHg 53%
    13:00 +5°C° 0.1 mm 5 mps 745 mmHg 54%
    14:00 +5°C° 0.1 mm 5 mps 745 mmHg 55%
    15:00 +5°C° 0.1 mm 5 mps 745 mmHg 56%
    16:00 +4°C° 0 mm 4 mps 745 mmHg 60%
    17:00 +4°C° 0 mm 3 mps 745 mmHg 64%
    18:00 +3°C° 0 mm 3 mps 744 mmHg 69%
    19:00 +3°C° 0 mm 2 mps 744 mmHg 75%
    20:00 +2°C° 0 mm 2 mps 745 mmHg 81%
    21:00 +1°C° 0 mm 2 mps 745 mmHg 86%
    22:00 +1°C° 0 mm 2 mps 744 mmHg 89%
    23:00 -1°C° 0 mm 2 mps 744 mmHg 91%

    24 March, Sunday

    Time Temperature Precipitation Wind Pressure Humidity
    00:00 -1°C° 0 mm 2 mps 744 mmHg 93%
    01:00 -1°C° 0 mm 2 mps 743 mmHg 94%
    02:00 -1°C° 0 mm 2 mps 743 mmHg 95%
    03:00 -1°C° 0 mm 2 mps 743 mmHg 96%
    04:00 -1°C° 0 mm 2 mps 742 mmHg 94%
    05:00 0°C° 0 mm 3 mps 742 mmHg 92%
    06:00 0°C° 0 mm 3 mps 742 mmHg 89%
    07:00 +1°C° 0 mm 5 mps 742 mmHg 82%
    08:00 +2°C° 0 mm 6 mps 742 mmHg 75%
    09:00 +3°C° 0 mm 7 mps 741 mmHg 67%
    10:00 +3°C° 0.3 mm 7 mps 741 mmHg 71%
    11:00 +3°C° 0.3 mm 7 mps 741 mmHg 74%
    12:00 +4°C° 0.3 mm 7 mps 741 mmHg 77%
    13:00 +4°C° 0.1 mm 8 mps 741 mmHg 74%
    14:00 +4°C° 0.1 mm 8 mps 741 mmHg 70%
    15:00 +5°C° 0.1 mm 8 mps 741 mmHg 67%
    16:00 +4°C° 0.1 mm 8 mps 741 mmHg 71%
    17:00 +4°C° 0.1 mm 7 mps 741 mmHg 76%
    18:00 +3°C° 0.1 mm 7 mps 741 mmHg 80%
    19:00 +3°C° 0 mm 7 mps 742 mmHg 80%
    20:00 +3°C° 0 mm 7 mps 742 mmHg 81%
    21:00 +3°C° 0 mm 7 mps 743 mmHg 81%
    22:00 +3°C° 0.1 mm 7 mps 743 mmHg 81%
    23:00 +3°C° 0.1 mm 6 mps 743 mmHg 81%

    25 March, Monday

    Time Temperature Precipitation Wind Pressure Humidity
    00:00 +3°C° 0.1 mm 6 mps 743 mmHg 82%
    01:00 +3°C° 0 mm 6 mps 744 mmHg 82%
    02:00 +2°C° 0 mm 5 mps 744 mmHg 82%
    03:00 +2°C° 0 mm 5 mps 744 mmHg 83%
    04:00 +1°C° 0 mm 4 mps 744 mmHg 84%
    05:00 +1°C° 0 mm 3 mps 745 mmHg 86%
    06:00 +1°C° 0 mm 3 mps 745 mmHg 88%
    07:00 +2°C° 0 mm 3 mps 746 mmHg 83%
    08:00 +3°C° 0 mm 3 mps 746 mmHg 79%
    09:00 +4°C° 0 mm 4 mps 747 mmHg 75%
    10:00 +5°C° 0 mm 4 mps 747 mmHg 71%
    11:00 +6°C° 0 mm 4 mps 748 mmHg 68%
    12:00 +7°C° 0 mm 5 mps 748 mmHg 65%
    13:00 +7°C° 0 mm 4 mps 748 mmHg 65%
    14:00 +7°C° 0 mm 4 mps 748 mmHg 66%
    15:00 +7°C° 0 mm 4 mps 748 mmHg 66%
    16:00 +8°C° 0 mm 3 mps 748 mmHg 71%
    17:00 +7°C° 0 mm 3 mps 748 mmHg 76%
    18:00 +6°C° 0 mm 2 mps 748 mmHg 81%
    19:00 +5°C° 0 mm 2 mps 748 mmHg 85%
    20:00 +4°C° 0 mm 2 mps 748 mmHg 89%
    21:00 +3°C° 0 mm 2 mps 748 mmHg 93%
    22:00 +4°C° 0 mm 1 mps 748 mmHg 93%
    23:00 +3°C° 0 mm 1 mps 748 mmHg 94%

    26 March, Tuesday

    Time Temperature Precipitation Wind Pressure Humidity
    00:00 +3°C° 0 mm 1 mps 748 mmHg 95%
    01:00 +3°C° 0 mm 1 mps 748 mmHg 95%
    02:00 +3°C° 0 mm 1 mps 748 mmHg 95%
    03:00 +4°C° 0 mm 1 mps 748 mmHg 95%
    04:00 +3°C° 0 mm 1 mps 748 mmHg 95%
    05:00 +3°C° 0 mm 1 mps 748 mmHg 96%
    06:00 +3°C° 0 mm 1 mps 748 mmHg 96%
    07:00 +3°C° 0 mm 2 mps 748 mmHg 91%
    08:00 +4°C° 0 mm 2 mps 748 mmHg 85%
    09:00 +6°C° 0 mm 2 mps 748 mmHg 80%
    10:00 +5°C° 0 mm 3 mps 748 mmHg 76%
    11:00 +7°C° 0 mm 3 mps 748 mmHg 72%
    12:00 +7°C° 0 mm 4 mps 748 mmHg 68%
    13:00 +8°C° 0 mm 4 mps 748 mmHg 67%
    14:00 +8°C° 0 mm 4 mps 747 mmHg 66%
    15:00 +8°C° 0 mm 5 mps 747 mmHg 65%
    16:00 +7°C° 0 mm 4 mps 747 mmHg 70%
    17:00 +6°C° 0 mm 4 mps 747 mmHg 74%
    18:00 +5°C° 0 mm 4 mps 747 mmHg 78%
    19:00 +5°C° 0 mm 4 mps 747 mmHg 82%
    20:00 +4°C° 0 mm 3 mps 747 mmHg 86%
    21:00 +4°C° 0 mm 3 mps 747 mmHg 90%
    22:00 +4°C° 0 mm 3 mps 747 mmHg 90%
    23:00 +4°C° 0 mm 4 mps 746 mmHg 91%
    Show more